Niagara Falls, NY

6:06 AM EDT on October 17, 2017 (GMT -0400)
Niagara Falls International

Weather History for KIAG - March, 2014

Change the Weather History Date:

Monday, March 24, 2014

  Actual Average Record
Temperature  
Mean Temperature 21 °F -  
Max Temperature 25 °F 41 °F 63 °F (2017)
Min Temperature 17 °F 27 °F 15 °F (1998)
Degree Days  
Heating Degree Days 44    
Moisture  
Dew Point 10 °F    
Average Humidity 64    
Maximum Humidity 84    
Minimum Humidity 46    
Precipitation  
Precipitation 0.00 in - - ()
Sea Level Pressure  
Sea Level Pressure 30.24 in    
Wind  
Wind Speed 12 mph (West)    
Max Wind Speed 17 mph    
Max Gust Speed 23 mph    
Visibility 8 miles    
Events Snow    
Averages and records for this station are not official NWS values.
T = Trace of Precipitation, MM = Missing Value Source: NWS Daily Summary

Daily Weather History Graph

Daily Weather History Graph

Search for Another Location

Airport or City:

Trip Planner

Search our weather history database for the weather conditions in past years. The results will help you decide how hot, cold, wet, or windy it might be!

Date:

Astronomy

Mar. 24, 2014 Rise Set
Actual Time 7:11 AM EDT 7:32 PM EDT
Civil Twilight 6:43 AM EDT 8:01 PM EDT
Nautical Twilight 6:10 AM EDT 8:34 PM EDT
Astronomical Twilight 5:35 AM EDT 9:09 PM EDT
Moon 2:49 AM EDT (3/24) 12:47 PM EDT (3/24)
Length of Visible Light 13h 17m
Length of Day
12h 20m
Last Quarter, 43% of the Moon is Illuminated
Mar 24
Last Quarter
Mar 30
New
Apr 7
First Quarter
Apr 15
Full
Apr 22
Last Quarter

Hourly Weather History & Observations

Time (EDT) Temp. Windchill Dew Point Humidity Pressure Visibility Wind Dir Wind Speed Gust Speed Precip Events Conditions
1:53 AM 18.0 °F 4.8 °F 5.0 °F 57% 30.35 in 10.0 mi NW 12.7 mph - N/A   Mostly Cloudy
2:53 AM 18.0 °F 5.4 °F 6.1 °F 60% 30.35 in 10.0 mi NW 11.5 mph - N/A   Overcast
3:53 AM 17.1 °F 5.8 °F 7.0 °F 65% 30.34 in 10.0 mi West 9.2 mph - N/A   Overcast
4:53 AM 18.0 °F 4.2 °F 8.1 °F 65% 30.34 in 4.0 mi NW 13.8 mph - 0.00 in Snow Light Snow
5:12 AM 18.0 °F 6.1 °F 7.0 °F 62% 30.28 in 10.0 mi NW 10.4 mph - 0.00 in   Overcast
5:53 AM 18.0 °F 4.8 °F 7.0 °F 62% 30.34 in 10.0 mi NW 12.7 mph - 0.00 in   Overcast
6:53 AM 18.0 °F 5.4 °F 7.0 °F 62% 30.34 in 10.0 mi NW 11.5 mph - 0.00 in   Overcast
7:00 AM 18.0 °F 5.4 °F 8.1 °F 65% 30.28 in 7.0 mi NW 11.5 mph - N/A   Mostly Cloudy
7:25 AM 17.1 °F 6.6 °F 9.0 °F 71% 30.28 in 7.0 mi West 8.1 mph - N/A   Mostly Cloudy
7:42 AM 17.1 °F 6.6 °F 9.0 °F 71% 30.28 in 7.0 mi WSW 8.1 mph - 0.00 in Snow Light Snow
7:53 AM 17.1 °F 7.6 °F 10.0 °F 74% 30.35 in 7.0 mi West 6.9 mph - 0.00 in Snow Light Snow
8:53 AM 18.0 °F 6.9 °F 9.0 °F 68% 30.34 in 7.0 mi West 9.2 mph - 0.00 in Snow Light Snow
9:35 AM 19.0 °F 7.5 °F 7.0 °F 59% 30.27 in 10.0 mi WNW 10.4 mph - 0.00 in   Mostly Cloudy
9:53 AM 19.0 °F 7.5 °F 6.1 °F 57% 30.34 in 10.0 mi WNW 10.4 mph - 0.00 in   Mostly Cloudy
10:22 AM 19.9 °F 7.3 °F 7.0 °F 57% 30.28 in 7.0 mi WNW 12.7 mph - 0.00 in Snow Light Snow
10:53 AM 19.9 °F 7.3 °F 5.0 °F 52% 30.33 in 7.0 mi NW 12.7 mph - 0.00 in Snow Light Snow
11:13 AM 21.0 °F 9.3 °F 6.1 °F 53% 30.26 in 10.0 mi West 11.5 mph - 0.00 in   Mostly Cloudy
11:53 AM 21.9 °F 7.8 °F 5.0 °F 48% 30.32 in 10.0 mi West 17.3 mph - 0.00 in   Mostly Cloudy
12:53 PM 21.9 °F 8.7 °F 6.1 °F 51% 30.30 in 10.0 mi WNW 15.0 mph - N/A   Mostly Cloudy
1:53 PM 23.0 °F 9.2 °F 5.0 °F 46% 30.27 in 10.0 mi WNW 17.3 mph 23.0 mph N/A   Mostly Cloudy
2:09 PM 21.9 °F 9.2 °F 10.9 °F 63% 30.20 in 9.0 mi WSW 13.8 mph - N/A   Overcast
2:33 PM 21.9 °F 8.7 °F 12.0 °F 66% 30.20 in 2.5 mi WSW 15.0 mph - 0.00 in Snow Light Snow
2:37 PM 21.9 °F 9.2 °F 12.9 °F 68% 30.20 in 2.0 mi SW 13.8 mph - 0.00 in Snow Light Snow
2:43 PM 21.9 °F 10.4 °F 12.9 °F 68% 30.19 in 2.5 mi SW 11.5 mph - 0.00 in Snow Light Snow
2:48 PM 23.0 °F 9.6 °F 14.0 °F 68% 30.19 in 2.0 mi WSW 16.1 mph - 0.00 in Snow Light Snow
2:53 PM 21.9 °F 9.8 °F 14.0 °F 72% 30.25 in 2.0 mi WSW 12.7 mph - 0.00 in Snow Light Snow
3:09 PM 23.0 °F 10.6 °F 12.9 °F 65% 30.18 in 6.0 mi WSW 13.8 mph 19.6 mph 0.00 in Snow Light Snow
3:43 PM 24.1 °F 11.5 °F 12.0 °F 60% 30.17 in 7.0 mi WSW 15.0 mph - 0.00 in Snow Light Snow
3:53 PM 24.1 °F 13.1 °F 10.9 °F 57% 30.23 in 10.0 mi West 11.5 mph - 0.00 in Snow Light Snow
4:53 PM 25.0 °F 15.5 °F 12.0 °F 58% 30.19 in 10.0 mi WSW 9.2 mph - 0.00 in Snow Light Snow
5:53 PM 24.1 °F 14.4 °F 10.0 °F 55% 30.18 in 10.0 mi West 9.2 mph - 0.00 in Snow Light Snow
6:40 PM 24.1 °F 11.5 °F 10.0 °F 55% 30.11 in 10.0 mi WSW 15.0 mph - 0.00 in   Mostly Cloudy
6:53 PM 24.1 °F 12.0 °F 10.9 °F 57% 30.17 in 10.0 mi WSW 13.8 mph - 0.00 in   Mostly Cloudy
7:19 PM 23.0 °F 12.4 °F 14.0 °F 68% 30.12 in 8.0 mi WSW 10.4 mph - 0.00 in Snow Light Snow
8:14 PM 21.0 °F 11.4 °F 15.1 °F 78% 30.12 in 10.0 mi WSW 8.1 mph - 0.00 in   Mostly Cloudy
8:27 PM 21.9 °F 11.0 °F 15.1 °F 75% 30.12 in 6.0 mi WSW 10.4 mph - 0.00 in Snow Light Snow
8:53 PM 21.0 °F 9.9 °F 14.0 °F 74% 30.18 in 9.0 mi WSW 10.4 mph - 0.00 in Snow Light Snow
9:02 PM 21.0 °F 10.6 °F 14.0 °F 74% 30.12 in 10.0 mi WSW 9.2 mph - 0.00 in   Scattered Clouds
9:53 PM 19.9 °F 11.1 °F 15.1 °F 81% 30.17 in 10.0 mi SSW 6.9 mph - 0.00 in   Partly Cloudy
10:53 PM 19.0 °F 11.1 °F 14.0 °F 81% 30.16 in 10.0 mi SSW 5.8 mph - N/A   Partly Cloudy
11:53 PM 18.0 °F 9.8 °F 14.0 °F 84% 30.14 in 10.0 mi South 5.8 mph - N/A   Clear